Year,Month,Day,Hour,Minute,Value (Times are PST for temperature in C)
2018,08,08,00,00,17.80
2018,08,08,00,01,17.80
2018,08,08,00,02,17.80
2018,08,08,00,03,17.80
2018,08,08,00,04,17.80
2018,08,08,00,05,17.80
2018,08,08,00,06,17.70
2018,08,08,00,07,17.70
2018,08,08,00,08,17.70
2018,08,08,00,09,17.70
2018,08,08,00,10,17.70
2018,08,08,00,11,17.70
2018,08,08,00,12,17.60
2018,08,08,00,13,17.60
2018,08,08,00,14,17.60
2018,08,08,00,15,17.50
2018,08,08,00,16,17.50
2018,08,08,00,17,17.40
2018,08,08,00,18,17.40
2018,08,08,00,19,17.40
2018,08,08,00,20,17.40
2018,08,08,00,21,17.40
2018,08,08,00,22,17.30
2018,08,08,00,23,17.30
2018,08,08,00,24,17.30
2018,08,08,00,25,17.30
2018,08,08,00,26,17.30
2018,08,08,00,27,17.30
2018,08,08,00,28,17.40
2018,08,08,00,29,17.40
2018,08,08,00,30,17.40
2018,08,08,00,31,17.40
2018,08,08,00,32,17.40
2018,08,08,00,33,17.50
2018,08,08,00,34,17.50
2018,08,08,00,35,17.50
2018,08,08,00,36,17.50
2018,08,08,00,37,17.60
2018,08,08,00,38,17.60
2018,08,08,00,39,17.60
2018,08,08,00,40,17.60
2018,08,08,00,41,17.60
2018,08,08,00,42,17.60
2018,08,08,00,43,17.60
2018,08,08,00,44,17.60
2018,08,08,00,45,17.60
2018,08,08,00,46,17.60
2018,08,08,00,47,17.60
2018,08,08,00,48,17.60
2018,08,08,00,49,17.60
2018,08,08,00,50,17.60
2018,08,08,00,51,17.60
2018,08,08,00,52,17.60
2018,08,08,00,53,17.60
2018,08,08,00,54,17.60
2018,08,08,00,55,17.60
2018,08,08,00,56,17.60
2018,08,08,00,57,17.60
2018,08,08,00,58,17.50
2018,08,08,00,59,17.40
2018,08,08,01,00,17.30
2018,08,08,01,01,17.30
2018,08,08,01,02,17.20
2018,08,08,01,03,17.10
2018,08,08,01,04,17.00
2018,08,08,01,05,17.00
2018,08,08,01,06,16.90
2018,08,08,01,07,16.80
2018,08,08,01,08,16.70
2018,08,08,01,09,16.60
2018,08,08,01,10,16.40
2018,08,08,01,11,16.30
2018,08,08,01,12,16.20
2018,08,08,01,13,16.20
2018,08,08,01,14,16.10
2018,08,08,01,15,16.10
2018,08,08,01,16,16.00
2018,08,08,01,17,16.00
2018,08,08,01,18,16.00
2018,08,08,01,19,15.90
2018,08,08,01,20,15.90
2018,08,08,01,21,15.90
2018,08,08,01,22,15.90
2018,08,08,01,23,15.90
2018,08,08,01,24,15.90
2018,08,08,01,25,16.00
2018,08,08,01,26,16.00
2018,08,08,01,27,16.00
2018,08,08,01,28,16.10
2018,08,08,01,29,16.10
2018,08,08,01,30,16.10
2018,08,08,01,31,16.10
2018,08,08,01,32,16.10
2018,08,08,01,33,16.10
2018,08,08,01,34,16.10
2018,08,08,01,35,16.10
2018,08,08,01,36,16.10
2018,08,08,01,37,16.20
2018,08,08,01,38,16.20
2018,08,08,01,39,16.20
2018,08,08,01,40,16.20
2018,08,08,01,41,16.30
2018,08,08,01,42,16.40
2018,08,08,01,43,16.40
2018,08,08,01,44,16.50
2018,08,08,01,45,16.60
2018,08,08,01,46,16.60
2018,08,08,01,47,16.70
2018,08,08,01,48,16.70
2018,08,08,01,49,16.70
2018,08,08,01,50,16.80
2018,08,08,01,51,16.80
2018,08,08,01,52,16.70
2018,08,08,01,53,16.70
2018,08,08,01,54,16.70
2018,08,08,01,55,16.70
2018,08,08,01,56,16.70
2018,08,08,01,57,16.70
2018,08,08,01,58,16.70
2018,08,08,01,59,16.70
2018,08,08,02,00,16.70
2018,08,08,02,01,16.70
2018,08,08,02,02,16.70
2018,08,08,02,03,16.70
2018,08,08,02,04,16.70
2018,08,08,02,05,16.70
2018,08,08,02,06,16.70
2018,08,08,02,07,16.70
2018,08,08,02,08,16.70
2018,08,08,02,09,16.70
2018,08,08,02,10,16.80
2018,08,08,02,11,16.80
2018,08,08,02,12,16.80
2018,08,08,02,13,16.80
2018,08,08,02,14,16.80
2018,08,08,02,15,16.70
2018,08,08,02,16,16.70
2018,08,08,02,17,16.70
2018,08,08,02,18,16.60
2018,08,08,02,19,16.50
2018,08,08,02,20,16.50
2018,08,08,02,21,16.40
2018,08,08,02,22,16.30
2018,08,08,02,23,16.20
2018,08,08,02,24,16.10
2018,08,08,02,25,16.00
2018,08,08,02,26,15.90
2018,08,08,02,27,15.80
2018,08,08,02,28,15.70
2018,08,08,02,29,15.60
2018,08,08,02,30,15.60
2018,08,08,02,31,15.50
2018,08,08,02,32,15.50
2018,08,08,02,33,15.40
2018,08,08,02,34,15.40
2018,08,08,02,35,15.30
2018,08,08,02,36,15.30
2018,08,08,02,37,15.30
2018,08,08,02,38,15.30
2018,08,08,02,39,15.20
2018,08,08,02,40,15.20
2018,08,08,02,41,15.20
2018,08,08,02,42,15.20
2018,08,08,02,43,15.20
2018,08,08,02,44,15.20
2018,08,08,02,45,15.20
2018,08,08,02,46,15.20
2018,08,08,02,47,15.20
2018,08,08,02,48,15.20
2018,08,08,02,49,15.20
2018,08,08,02,50,15.20
2018,08,08,02,51,15.20
2018,08,08,02,52,15.20
2018,08,08,02,53,15.20
2018,08,08,02,54,15.20
2018,08,08,02,55,15.20
2018,08,08,02,56,15.20
2018,08,08,02,57,15.20
2018,08,08,02,58,15.20
2018,08,08,02,59,15.20
2018,08,08,03,00,15.20
2018,08,08,03,01,15.20
2018,08,08,03,02,15.20
2018,08,08,03,03,15.20
2018,08,08,03,04,15.20
2018,08,08,03,05,15.20
2018,08,08,03,06,15.20
2018,08,08,03,07,15.20
2018,08,08,03,08,15.20
2018,08,08,03,09,15.20
2018,08,08,03,10,15.20
2018,08,08,03,11,15.20
2018,08,08,03,12,15.20
2018,08,08,03,13,15.20
2018,08,08,03,14,15.20
2018,08,08,03,15,15.20
2018,08,08,03,16,15.20
2018,08,08,03,17,15.20
2018,08,08,03,18,15.20
2018,08,08,03,19,15.20
2018,08,08,03,20,15.20
2018,08,08,03,21,15.30
2018,08,08,03,22,15.30
2018,08,08,03,23,15.30
2018,08,08,03,24,15.30
2018,08,08,03,25,15.30
2018,08,08,03,26,15.30
2018,08,08,03,27,15.30
2018,08,08,03,28,15.30
2018,08,08,03,29,15.30
2018,08,08,03,30,15.30
2018,08,08,03,31,15.30
2018,08,08,03,32,15.30
2018,08,08,03,33,15.40
2018,08,08,03,34,15.40
2018,08,08,03,35,15.40
2018,08,08,03,36,15.40
2018,08,08,03,37,15.40
2018,08,08,03,38,15.40
2018,08,08,03,39,15.50
2018,08,08,03,40,15.50
2018,08,08,03,41,15.50
2018,08,08,03,42,15.50
2018,08,08,03,43,15.50
2018,08,08,03,44,15.50
2018,08,08,03,45,15.50
2018,08,08,03,46,15.60
2018,08,08,03,47,15.60
2018,08,08,03,48,15.60
2018,08,08,03,49,15.60
2018,08,08,03,50,15.60
2018,08,08,03,51,15.60
2018,08,08,03,52,15.60
2018,08,08,03,53,15.60
2018,08,08,03,54,15.60
2018,08,08,03,55,15.60
2018,08,08,03,56,15.60
2018,08,08,03,57,15.60
2018,08,08,03,58,15.60
2018,08,08,03,59,15.60
2018,08,08,04,00,15.60
2018,08,08,04,01,15.60
2018,08,08,04,02,15.60
2018,08,08,04,03,15.60
2018,08,08,04,04,15.60
2018,08,08,04,05,15.60
2018,08,08,04,06,15.60
2018,08,08,04,07,15.60
2018,08,08,04,08,15.60
2018,08,08,04,09,15.60
2018,08,08,04,10,15.60
2018,08,08,04,11,15.60
2018,08,08,04,12,15.60
2018,08,08,04,13,15.60
2018,08,08,04,14,15.50
2018,08,08,04,15,15.50
2018,08,08,04,16,15.50
2018,08,08,04,17,15.50
2018,08,08,04,18,15.40
2018,08,08,04,19,15.40
2018,08,08,04,20,15.40
2018,08,08,04,21,15.40
2018,08,08,04,22,15.40
2018,08,08,04,23,15.40
2018,08,08,04,24,15.40
2018,08,08,04,25,15.30
2018,08,08,04,26,15.30
2018,08,08,04,27,15.30
2018,08,08,04,28,15.30
2018,08,08,04,29,15.20
2018,08,08,04,30,15.20
2018,08,08,04,31,15.10
2018,08,08,04,32,15.10
2018,08,08,04,33,15.10
2018,08,08,04,34,15.00
2018,08,08,04,35,14.90
2018,08,08,04,36,14.90
2018,08,08,04,37,14.90
2018,08,08,04,38,14.80
2018,08,08,04,39,14.80
2018,08,08,04,40,14.80
2018,08,08,04,41,14.80
2018,08,08,04,42,14.80
2018,08,08,04,43,14.80
2018,08,08,04,44,14.70
2018,08,08,04,45,14.70
2018,08,08,04,46,14.70
2018,08,08,04,47,14.70
2018,08,08,04,48,14.70
2018,08,08,04,49,14.70
2018,08,08,04,50,14.70
2018,08,08,04,51,14.70
2018,08,08,04,52,14.70
2018,08,08,04,53,14.60
2018,08,08,04,54,14.60
2018,08,08,04,55,14.60
2018,08,08,04,56,14.60
2018,08,08,04,57,14.60
2018,08,08,04,58,14.60
2018,08,08,04,59,14.60
2018,08,08,05,00,14.50
2018,08,08,05,01,14.50
2018,08,08,05,02,14.50
2018,08,08,05,03,14.50
2018,08,08,05,04,14.50
2018,08,08,05,05,14.40
2018,08,08,05,06,14.40
2018,08,08,05,07,14.40
2018,08,08,05,08,14.40
2018,08,08,05,09,14.40
2018,08,08,05,10,14.50
2018,08,08,05,11,14.50
2018,08,08,05,12,14.50
2018,08,08,05,13,14.50
2018,08,08,05,14,14.50
2018,08,08,05,15,14.50
2018,08,08,05,16,14.50
2018,08,08,05,17,14.40
2018,08,08,05,18,14.40
2018,08,08,05,19,14.40
2018,08,08,05,20,14.40
2018,08,08,05,21,14.40
2018,08,08,05,22,14.40
2018,08,08,05,23,14.30
2018,08,08,05,24,14.30
2018,08,08,05,25,14.30
2018,08,08,05,26,14.30
2018,08,08,05,27,14.30
2018,08,08,05,28,14.30
2018,08,08,05,29,14.30
2018,08,08,05,30,14.30
2018,08,08,05,31,14.30
2018,08,08,05,32,14.30
2018,08,08,05,33,14.30
2018,08,08,05,34,14.30
2018,08,08,05,35,14.30
2018,08,08,05,36,14.30
2018,08,08,05,37,14.30
2018,08,08,05,38,14.30
2018,08,08,05,39,14.40
2018,08,08,05,40,14.40
2018,08,08,05,41,14.40
2018,08,08,05,42,14.40
2018,08,08,05,43,14.40
2018,08,08,05,44,14.40
2018,08,08,05,45,14.40
2018,08,08,05,46,14.40
2018,08,08,05,47,14.40
2018,08,08,05,48,14.40
2018,08,08,05,49,14.40
2018,08,08,05,50,14.40
2018,08,08,05,51,14.40
2018,08,08,05,52,14.40
2018,08,08,05,53,14.40
2018,08,08,05,54,14.40
2018,08,08,05,55,14.40
2018,08,08,05,56,14.50
2018,08,08,05,57,14.50
2018,08,08,05,58,14.50
2018,08,08,05,59,14.50
2018,08,08,06,00,14.50
2018,08,08,06,01,14.60
2018,08,08,06,02,14.60
2018,08,08,06,03,14.60
2018,08,08,06,04,14.60
2018,08,08,06,05,14.60
2018,08,08,06,06,14.60
2018,08,08,06,07,14.60
2018,08,08,06,08,14.60
2018,08,08,06,09,14.60
2018,08,08,06,10,14.60
2018,08,08,06,11,14.60
2018,08,08,06,12,14.60
2018,08,08,06,13,14.60
2018,08,08,06,14,14.60
2018,08,08,06,15,14.60
2018,08,08,06,16,14.60
2018,08,08,06,17,14.50
2018,08,08,06,18,14.60
2018,08,08,06,19,14.60
2018,08,08,06,20,14.60
2018,08,08,06,21,14.60
2018,08,08,06,22,14.60
2018,08,08,06,23,14.60
2018,08,08,06,24,14.60
2018,08,08,06,25,14.70
2018,08,08,06,26,14.70
2018,08,08,06,27,14.70
2018,08,08,06,28,14.70
2018,08,08,06,29,14.70
2018,08,08,06,30,14.70
2018,08,08,06,31,14.70
2018,08,08,06,32,14.80
2018,08,08,06,33,14.80
2018,08,08,06,34,14.80
2018,08,08,06,35,14.80
2018,08,08,06,36,14.90
2018,08,08,06,37,14.90
2018,08,08,06,38,14.90
2018,08,08,06,39,14.90
2018,08,08,06,40,15.00
2018,08,08,06,41,15.00
2018,08,08,06,42,15.10
2018,08,08,06,43,15.10
2018,08,08,06,44,15.10
2018,08,08,06,45,15.20
2018,08,08,06,46,15.20
2018,08,08,06,47,15.30
2018,08,08,06,48,15.30
2018,08,08,06,49,15.30
2018,08,08,06,50,15.30
2018,08,08,06,51,15.40
2018,08,08,06,52,15.40
2018,08,08,06,53,15.50
2018,08,08,06,54,15.50
2018,08,08,06,55,15.60
2018,08,08,06,56,15.60
2018,08,08,06,57,15.70
2018,08,08,06,58,15.70
2018,08,08,06,59,15.70
2018,08,08,07,00,15.80
2018,08,08,07,01,15.80
2018,08,08,07,02,15.90
2018,08,08,07,03,15.90
2018,08,08,07,04,15.90
2018,08,08,07,05,16.00
2018,08,08,07,06,16.00
2018,08,08,07,07,16.00
2018,08,08,07,08,16.00
2018,08,08,07,09,16.10
2018,08,08,07,10,16.10
2018,08,08,07,11,16.10
2018,08,08,07,12,16.20
2018,08,08,07,13,16.20
2018,08,08,07,14,16.20
2018,08,08,07,15,16.10
2018,08,08,07,16,16.10
2018,08,08,07,17,16.10
2018,08,08,07,18,16.10
2018,08,08,07,19,16.10
2018,08,08,07,20,16.10
2018,08,08,07,21,16.10
2018,08,08,07,22,16.10
2018,08,08,07,23,16.10
2018,08,08,07,24,16.10
2018,08,08,07,25,16.20
2018,08,08,07,26,16.20
2018,08,08,07,27,16.20
2018,08,08,07,28,16.30
2018,08,08,07,29,16.30
2018,08,08,07,30,16.40
2018,08,08,07,31,16.40
2018,08,08,07,32,16.50
2018,08,08,07,33,16.60
2018,08,08,07,34,16.70
2018,08,08,07,35,16.80
2018,08,08,07,36,16.80
2018,08,08,07,37,16.90
2018,08,08,07,38,17.00
2018,08,08,07,39,17.10
2018,08,08,07,40,17.20
2018,08,08,07,41,17.30
2018,08,08,07,42,17.40
2018,08,08,07,43,17.50
2018,08,08,07,44,17.60
2018,08,08,07,45,17.70
2018,08,08,07,46,17.80
2018,08,08,07,47,17.90
2018,08,08,07,48,18.10
2018,08,08,07,49,18.20
2018,08,08,07,50,18.30
2018,08,08,07,51,18.40
2018,08,08,07,52,18.50
2018,08,08,07,53,18.60
2018,08,08,07,54,18.70
2018,08,08,07,55,18.70
2018,08,08,07,56,18.80
2018,08,08,07,57,18.90
2018,08,08,07,58,19.00
2018,08,08,07,59,19.10
2018,08,08,08,00,19.20
2018,08,08,08,01,19.30
2018,08,08,08,02,19.50
2018,08,08,08,03,19.60
2018,08,08,08,04,19.70
2018,08,08,08,05,19.80
2018,08,08,08,06,19.90
2018,08,08,08,07,20.00
2018,08,08,08,08,20.10
2018,08,08,08,09,20.20
2018,08,08,08,10,20.30
2018,08,08,08,11,20.40
2018,08,08,08,12,20.50
2018,08,08,08,13,20.60
2018,08,08,08,14,20.70
2018,08,08,08,15,20.70
2018,08,08,08,16,20.80
2018,08,08,08,17,20.90
2018,08,08,08,18,21.00
2018,08,08,08,19,21.00
2018,08,08,08,20,21.10
2018,08,08,08,21,21.20
2018,08,08,08,22,21.20
2018,08,08,08,23,21.30
2018,08,08,08,24,21.40
2018,08,08,08,25,21.50
2018,08,08,08,26,21.60
2018,08,08,08,27,21.70
2018,08,08,08,28,21.80
2018,08,08,08,29,21.90
2018,08,08,08,30,22.00
2018,08,08,08,31,22.10
2018,08,08,08,32,22.10
2018,08,08,08,33,22.20
2018,08,08,08,34,22.30
2018,08,08,08,35,22.40
2018,08,08,08,36,22.50
2018,08,08,08,37,22.60
2018,08,08,08,38,22.70
2018,08,08,08,39,22.80
2018,08,08,08,40,22.90
2018,08,08,08,41,23.00
2018,08,08,08,42,23.10
2018,08,08,08,43,23.20
2018,08,08,08,44,23.20
2018,08,08,08,45,23.30
2018,08,08,08,46,23.30
2018,08,08,08,47,23.40
2018,08,08,08,48,23.50
2018,08,08,08,49,23.50
2018,08,08,08,50,23.30
2018,08,08,08,51,23.00
2018,08,08,08,52,22.80
2018,08,08,08,53,22.50
2018,08,08,08,54,22.30
2018,08,08,08,55,22.20
2018,08,08,08,56,22.10
2018,08,08,08,57,22.00
2018,08,08,08,58,21.90
2018,08,08,08,59,21.80
2018,08,08,09,00,21.70
2018,08,08,09,01,21.70
2018,08,08,09,02,21.60
2018,08,08,09,03,21.60
2018,08,08,09,04,21.60
2018,08,08,09,05,21.50
2018,08,08,09,06,21.40
2018,08,08,09,07,21.40
2018,08,08,09,08,21.30
2018,08,08,09,09,21.20
2018,08,08,09,10,21.10
2018,08,08,09,11,21.10
2018,08,08,09,12,21.10
2018,08,08,09,13,21.10
2018,08,08,09,14,21.20
2018,08,08,09,15,21.30
2018,08,08,09,16,21.30
2018,08,08,09,17,21.40
2018,08,08,09,18,21.50
2018,08,08,09,19,21.60
2018,08,08,09,20,21.80
2018,08,08,09,21,21.90
2018,08,08,09,22,22.00
2018,08,08,09,23,22.10
2018,08,08,09,24,22.20
2018,08,08,09,25,22.40
2018,08,08,09,26,22.50
2018,08,08,09,27,22.60
2018,08,08,09,28,22.70
2018,08,08,09,29,22.80
2018,08,08,09,30,22.80
2018,08,08,09,31,22.90
2018,08,08,09,32,22.90
2018,08,08,09,33,23.00
2018,08,08,09,34,23.10
2018,08,08,09,35,23.20
2018,08,08,09,36,23.20
2018,08,08,09,37,23.30
2018,08,08,09,38,23.40
2018,08,08,09,39,23.40
2018,08,08,09,40,23.50
2018,08,08,09,41,23.50
2018,08,08,09,42,23.60
2018,08,08,09,43,23.60
2018,08,08,09,44,23.70
2018,08,08,09,45,23.70
2018,08,08,09,46,23.70
2018,08,08,09,47,23.70
2018,08,08,09,48,23.70
2018,08,08,09,49,23.70
2018,08,08,09,50,23.80
2018,08,08,09,51,23.80
2018,08,08,09,52,23.80
2018,08,08,09,53,23.80
2018,08,08,09,54,23.70
2018,08,08,09,55,23.70
2018,08,08,09,56,23.70
2018,08,08,09,57,23.70
2018,08,08,09,58,23.80
2018,08,08,09,59,23.90
2018,08,08,10,00,23.90
2018,08,08,10,01,23.90
2018,08,08,10,02,23.90
2018,08,08,10,03,23.90
2018,08,08,10,04,24.00
2018,08,08,10,05,24.00
2018,08,08,10,06,24.00
2018,08,08,10,07,24.00
2018,08,08,10,08,24.10
2018,08,08,10,09,24.10
2018,08,08,10,10,24.10
2018,08,08,10,11,24.20
2018,08,08,10,12,24.20
2018,08,08,10,13,24.20
2018,08,08,10,14,24.20
2018,08,08,10,15,24.10
2018,08,08,10,16,24.10
2018,08,08,10,17,24.10
2018,08,08,10,18,24.10
2018,08,08,10,19,24.10
2018,08,08,10,20,24.10
2018,08,08,10,21,24.10
2018,08,08,10,22,24.10
2018,08,08,10,23,24.20
2018,08,08,10,24,24.30
2018,08,08,10,25,24.40
2018,08,08,10,26,24.50
2018,08,08,10,27,24.50
2018,08,08,10,28,24.60
2018,08,08,10,29,24.60
2018,08,08,10,30,24.70
2018,08,08,10,31,24.70
2018,08,08,10,32,24.60
2018,08,08,10,33,24.50
2018,08,08,10,34,24.40
2018,08,08,10,35,24.40
2018,08,08,10,36,24.30
2018,08,08,10,37,24.30
2018,08,08,10,38,24.30
2018,08,08,10,39,24.30
2018,08,08,10,40,24.30
2018,08,08,10,41,24.40
2018,08,08,10,42,24.40
2018,08,08,10,43,24.50
2018,08,08,10,44,24.50
2018,08,08,10,45,24.60
2018,08,08,10,46,24.50
2018,08,08,10,47,24.40
2018,08,08,10,48,24.20
2018,08,08,10,49,24.10
2018,08,08,10,50,24.10
2018,08,08,10,51,24.20
2018,08,08,10,52,24.30
2018,08,08,10,53,24.30
2018,08,08,10,54,24.30
2018,08,08,10,55,24.30
2018,08,08,10,56,24.30
2018,08,08,10,57,24.30
2018,08,08,10,58,24.40
2018,08,08,10,59,24.50
2018,08,08,11,00,24.60
2018,08,08,11,01,24.70
2018,08,08,11,02,24.80
2018,08,08,11,03,24.80
2018,08,08,11,04,24.80
2018,08,08,11,05,24.80
2018,08,08,11,06,24.80
2018,08,08,11,07,24.80
2018,08,08,11,08,24.90
2018,08,08,11,09,25.00
2018,08,08,11,10,25.10
2018,08,08,11,11,25.20
2018,08,08,11,12,25.20
2018,08,08,11,13,25.20
2018,08,08,11,14,25.20
2018,08,08,11,15,25.30
2018,08,08,11,16,25.30
2018,08,08,11,17,25.40
2018,08,08,11,18,25.40
2018,08,08,11,19,25.50
2018,08,08,11,20,25.50
2018,08,08,11,21,25.40
2018,08,08,11,22,25.40
2018,08,08,11,23,25.40
2018,08,08,11,24,25.30
2018,08,08,11,25,25.20
2018,08,08,11,26,25.10
2018,08,08,11,27,25.00
2018,08,08,11,28,24.90
2018,08,08,11,29,24.80
2018,08,08,11,30,24.80
2018,08,08,11,31,24.80
2018,08,08,11,32,24.90
2018,08,08,11,33,25.00
2018,08,08,11,34,25.10
2018,08,08,11,35,25.10
2018,08,08,11,36,25.10
2018,08,08,11,37,25.10
2018,08,08,11,38,25.10
2018,08,08,11,39,25.00
2018,08,08,11,40,25.00
2018,08,08,11,41,24.90
2018,08,08,11,42,25.00
2018,08,08,11,43,25.00
2018,08,08,11,44,25.10
2018,08,08,11,45,25.10
2018,08,08,11,46,25.20
2018,08,08,11,47,25.30
2018,08,08,11,48,25.40
2018,08,08,11,49,25.50
2018,08,08,11,50,25.60
2018,08,08,11,51,25.70
2018,08,08,11,52,25.70
2018,08,08,11,53,25.70
2018,08,08,11,54,25.70
2018,08,08,11,55,25.60
2018,08,08,11,56,25.50
2018,08,08,11,57,25.30
2018,08,08,11,58,25.10
2018,08,08,11,59,25.10
2018,08,08,12,00,25.10
2018,08,08,12,01,25.10
2018,08,08,12,02,25.20
2018,08,08,12,03,25.30
2018,08,08,12,04,25.40
2018,08,08,12,05,25.40
2018,08,08,12,06,25.40
2018,08,08,12,07,25.40
2018,08,08,12,08,25.40
2018,08,08,12,09,25.40
2018,08,08,12,10,25.40
2018,08,08,12,11,25.40
2018,08,08,12,12,25.50
2018,08,08,12,13,25.50
2018,08,08,12,14,25.60
2018,08,08,12,15,25.60
2018,08,08,12,16,25.70
2018,08,08,12,17,25.80
2018,08,08,12,18,25.80
2018,08,08,12,19,25.70
2018,08,08,12,20,25.60
2018,08,08,12,21,25.50
2018,08,08,12,22,25.40
2018,08,08,12,23,25.40
2018,08,08,12,24,25.40
2018,08,08,12,25,25.40
2018,08,08,12,26,25.30
2018,08,08,12,27,25.30
2018,08,08,12,28,25.30
2018,08,08,12,29,25.30
2018,08,08,12,30,25.30
2018,08,08,12,31,25.30
2018,08,08,12,32,25.30
2018,08,08,12,33,25.30
2018,08,08,12,34,25.20
2018,08,08,12,35,25.20
2018,08,08,12,36,25.10
2018,08,08,12,37,25.00
2018,08,08,12,38,24.90
2018,08,08,12,39,24.90
2018,08,08,12,40,24.90
2018,08,08,12,41,24.90
2018,08,08,12,42,24.90
2018,08,08,12,43,24.90
2018,08,08,12,44,24.90
2018,08,08,12,45,25.00
2018,08,08,12,46,24.90
2018,08,08,12,47,25.00
2018,08,08,12,48,25.00
2018,08,08,12,49,25.00
2018,08,08,12,50,24.90
2018,08,08,12,51,24.90
2018,08,08,12,52,25.00
2018,08,08,12,53,25.10
2018,08,08,12,54,25.20
2018,08,08,12,55,25.30
2018,08,08,12,56,25.50
2018,08,08,12,57,25.70
2018,08,08,12,58,25.90
2018,08,08,12,59,26.00
2018,08,08,13,00,26.10
2018,08,08,13,01,26.30
2018,08,08,13,02,26.30
2018,08,08,13,03,26.30
2018,08,08,13,04,26.30
2018,08,08,13,05,26.30
2018,08,08,13,06,26.30
2018,08,08,13,07,26.20
2018,08,08,13,08,26.20
2018,08,08,13,09,26.20
2018,08,08,13,10,26.30
2018,08,08,13,11,26.40
2018,08,08,13,12,26.40
2018,08,08,13,13,26.40
2018,08,08,13,14,26.40
2018,08,08,13,15,26.40
2018,08,08,13,16,26.40
2018,08,08,13,17,26.40
2018,08,08,13,18,26.50
2018,08,08,13,19,26.50
2018,08,08,13,20,26.60
2018,08,08,13,21,26.50
2018,08,08,13,22,26.60
2018,08,08,13,23,26.60
2018,08,08,13,24,26.60
2018,08,08,13,25,26.70
2018,08,08,13,26,26.80
2018,08,08,13,27,26.80
2018,08,08,13,28,26.90
2018,08,08,13,29,26.90
2018,08,08,13,30,26.90
2018,08,08,13,31,26.90
2018,08,08,13,32,26.80
2018,08,08,13,33,26.90
2018,08,08,13,34,27.00
2018,08,08,13,35,27.10
2018,08,08,13,36,27.20
2018,08,08,13,37,27.30
2018,08,08,13,38,27.30
2018,08,08,13,39,27.40
2018,08,08,13,40,27.50
2018,08,08,13,41,27.50
2018,08,08,13,42,27.50
2018,08,08,13,43,27.40
2018,08,08,13,44,27.40
2018,08,08,13,45,27.40
2018,08,08,13,46,27.40
2018,08,08,13,47,27.50
2018,08,08,13,48,27.60
2018,08,08,13,49,27.70
2018,08,08,13,50,27.70
2018,08,08,13,51,27.60
2018,08,08,13,52,27.50
2018,08,08,13,53,27.40
2018,08,08,13,54,27.40
2018,08,08,13,55,27.40
2018,08,08,13,56,27.40
2018,08,08,13,57,27.50
2018,08,08,13,58,27.60
2018,08,08,13,59,27.70
2018,08,08,14,00,27.80
2018,08,08,14,01,27.90
2018,08,08,14,02,28.00
2018,08,08,14,03,28.10
2018,08,08,14,04,28.20
2018,08,08,14,05,28.30
2018,08,08,14,06,28.50
2018,08,08,14,07,28.60
2018,08,08,14,08,28.70
2018,08,08,14,09,28.80
2018,08,08,14,10,28.80
2018,08,08,14,11,28.80
2018,08,08,14,12,28.90
2018,08,08,14,13,28.90
2018,08,08,14,14,28.90
2018,08,08,14,15,28.90
2018,08,08,14,16,28.90
2018,08,08,14,17,28.90
2018,08,08,14,18,28.90
2018,08,08,14,19,28.90
2018,08,08,14,20,28.90
2018,08,08,14,21,28.80
2018,08,08,14,22,28.80
2018,08,08,14,23,28.70
2018,08,08,14,24,28.70
2018,08,08,14,25,28.70
2018,08,08,14,26,28.60
2018,08,08,14,27,28.50
2018,08,08,14,28,28.40
2018,08,08,14,29,28.40
2018,08,08,14,30,28.50
2018,08,08,14,31,28.50
2018,08,08,14,32,28.60
2018,08,08,14,33,28.60
2018,08,08,14,34,28.60
2018,08,08,14,35,28.70
2018,08,08,14,36,28.70
2018,08,08,14,37,28.80
2018,08,08,14,38,28.90
2018,08,08,14,39,29.00
2018,08,08,14,40,29.20
2018,08,08,14,41,29.40
2018,08,08,14,42,29.60
2018,08,08,14,43,29.60
2018,08,08,14,44,29.70
2018,08,08,14,45,29.80
2018,08,08,14,46,29.80
2018,08,08,14,47,29.90
2018,08,08,14,48,30.00
2018,08,08,14,49,30.00
2018,08,08,14,50,30.00
2018,08,08,14,51,30.00
2018,08,08,14,52,30.00
2018,08,08,14,53,30.00
2018,08,08,14,54,30.10
2018,08,08,14,55,30.10
2018,08,08,14,56,30.10
2018,08,08,14,57,30.00
2018,08,08,14,58,29.90
2018,08,08,14,59,29.90
2018,08,08,15,00,29.90
2018,08,08,15,01,29.90
2018,08,08,15,02,29.90
2018,08,08,15,03,29.90
2018,08,08,15,04,29.90
2018,08,08,15,05,29.80
2018,08,08,15,06,29.70
2018,08,08,15,07,29.70
2018,08,08,15,08,29.60
2018,08,08,15,09,29.70
2018,08,08,15,10,29.70
2018,08,08,15,11,29.70
2018,08,08,15,12,29.70
2018,08,08,15,13,29.70
2018,08,08,15,14,29.60
2018,08,08,15,15,29.60
2018,08,08,15,16,29.60
2018,08,08,15,17,29.70
2018,08,08,15,18,29.70
2018,08,08,15,19,29.60
2018,08,08,15,20,29.60
2018,08,08,15,21,29.50
2018,08,08,15,22,29.40
2018,08,08,15,23,29.40
2018,08,08,15,24,29.40
2018,08,08,15,25,29.40
2018,08,08,15,26,29.40
2018,08,08,15,27,29.50
2018,08,08,15,28,29.60
2018,08,08,15,29,29.60
2018,08,08,15,30,29.70
2018,08,08,15,31,29.70
2018,08,08,15,32,29.70
2018,08,08,15,33,29.60
2018,08,08,15,34,29.60
2018,08,08,15,35,29.60
2018,08,08,15,36,29.50
2018,08,08,15,37,29.60
2018,08,08,15,38,29.80
2018,08,08,15,39,29.80
2018,08,08,15,40,29.80
2018,08,08,15,41,29.80
2018,08,08,15,42,29.80
2018,08,08,15,43,29.80
2018,08,08,15,44,29.80
2018,08,08,15,45,29.80
2018,08,08,15,46,29.80
2018,08,08,15,47,29.80
2018,08,08,15,48,29.80
2018,08,08,15,49,29.80
2018,08,08,15,50,29.90
2018,08,08,15,51,30.10
2018,08,08,15,52,30.20
2018,08,08,15,53,30.30
2018,08,08,15,54,30.30
2018,08,08,15,55,30.40
2018,08,08,15,56,30.40
2018,08,08,15,57,30.50
2018,08,08,15,58,30.50
2018,08,08,15,59,30.50
2018,08,08,16,00,30.40
2018,08,08,16,01,30.40
2018,08,08,16,02,30.40
2018,08,08,16,03,30.40
2018,08,08,16,04,30.30
2018,08,08,16,05,30.20
2018,08,08,16,06,30.10
2018,08,08,16,07,30.10
2018,08,08,16,08,30.10
2018,08,08,16,09,30.20
2018,08,08,16,10,30.20
2018,08,08,16,11,30.20
2018,08,08,16,12,30.20
2018,08,08,16,13,30.20
2018,08,08,16,14,30.10
2018,08,08,16,15,30.20
2018,08,08,16,16,30.20
2018,08,08,16,17,30.30
2018,08,08,16,18,30.50
2018,08,08,16,19,30.60
2018,08,08,16,20,30.70
2018,08,08,16,21,30.80
2018,08,08,16,22,30.80
2018,08,08,16,23,30.90
2018,08,08,16,24,31.00
2018,08,08,16,25,31.10
2018,08,08,16,26,31.20
2018,08,08,16,27,31.30
2018,08,08,16,28,31.30
2018,08,08,16,29,31.40
2018,08,08,16,30,31.30
2018,08,08,16,31,31.30
2018,08,08,16,32,31.30
2018,08,08,16,33,31.20
2018,08,08,16,34,31.10
2018,08,08,16,35,30.90
2018,08,08,16,36,30.80
2018,08,08,16,37,30.80
2018,08,08,16,38,30.70
2018,08,08,16,39,30.70
2018,08,08,16,40,30.80
2018,08,08,16,41,30.80
2018,08,08,16,42,30.90
2018,08,08,16,43,30.90
2018,08,08,16,44,30.90
2018,08,08,16,45,31.00
2018,08,08,16,46,31.00
2018,08,08,16,47,31.00
2018,08,08,16,48,31.00
2018,08,08,16,49,31.00
2018,08,08,16,50,31.00
2018,08,08,16,51,31.00
2018,08,08,16,52,31.00
2018,08,08,16,53,30.90
2018,08,08,16,54,31.00
2018,08,08,16,55,31.00
2018,08,08,16,56,31.10
2018,08,08,16,57,31.00
2018,08,08,16,58,31.00
2018,08,08,16,59,30.90
2018,08,08,17,00,30.90
2018,08,08,17,01,30.80
2018,08,08,17,02,30.80
2018,08,08,17,03,30.70
2018,08,08,17,04,30.70
2018,08,08,17,05,30.60
2018,08,08,17,06,30.60
2018,08,08,17,07,30.60
2018,08,08,17,08,30.70
2018,08,08,17,09,30.70
2018,08,08,17,10,30.80
2018,08,08,17,11,30.80
2018,08,08,17,12,30.80
2018,08,08,17,13,30.90
2018,08,08,17,14,31.00
2018,08,08,17,15,31.10
2018,08,08,17,16,31.10
2018,08,08,17,17,31.00
2018,08,08,17,18,31.00
2018,08,08,17,19,30.90